Location: *
(50.3194°N, 7.1067°E)
Time: 08:11:46
(UTC+00:00)

Cosmos 1766 - Pass Details

Date: 22 September 2019
Orbit: 521 x 546 km, 82.5° (Epoch: 22 October)

Event Time Altitude Azimuth Distance (km) Brightness Sun altitude
Exits shadow 19:54:25 17° 209° (SSW) 1,414 5.4 -22.7°
Maximum altitude 19:57:18 54° 283° (WNW) 658 3.9 -23.1°
Drops below altitude 10° 20:01:10 10° 2° (N) 1,790 6.3 -23.7°
Sets 20:03:21 0° 7° (N) 2,681 7.2 -24.0°
